INMARSAT GX5

Last updated on Tue Sep 22 2026 00:03:15 GMT+0000 (Coordinated Universal Time)

1 44801U 19080B 26264.27742973 .00000071 00000+0 00000+0 0 9992 2 44801 0.0512 12.9032 0002213 174.3273 283.8167 1.00273307 7756
UTC large
Height (km)
Speed (km/s)
/
Latitude / Longitude
Inclination (degrees)
Orbital Period (minutes)
Azimuth
Elevation
Range (km)
Doppler Factor

Next 0 passes for location: London (51.5072 / 0.1276)

No passes found over London.
INMARSAT GX5